Weather History for KRSL - November, 2012

Change the Weather History Date:

Friday, November 2, 2012

  Actual Average Record
Temperature  
Mean Temperature 53 °F -  
Max Temperature 64 °F 55 °F 81 °F (1964)
Min Temperature 42 °F 35 °F 5 °F (1991)
Degree Days  
Heating Degree Days 12    
Growing Degree Days 3 (Base 50)    
Moisture  
Dew Point 40 °F    
Average Humidity 61    
Maximum Humidity 85    
Minimum Humidity 45    
Precipitation  
Precipitation 0.00 in - - ()
Sea Level Pressure  
Sea Level Pressure 29.88 in    
Wind  
Wind Speed 11 mph (NE)    
Max Wind Speed 20 mph    
Max Gust Speed 25 mph    
Visibility 10 miles    
Events      
Averages and records for this station are not official NWS values.
T = Trace of Precipitation, MM = Missing Value Source: NWS Daily Summary

Daily Weather History Graph

Daily Weather History Graph

Search for Another Location

Airport or City:

Trip Planner

Search our weather history database for the weather conditions in past years. The results will help you decide how hot, cold, wet, or windy it might be!

Date:

Astronomy

Nov. 02, 2012 Rise Set
Actual Time 8:04 AM CDT 6:33 PM CDT
Civil Twilight 7:36 AM CDT 7:00 PM CDT
Nautical Twilight 7:04 AM CDT 7:32 PM CDT
Astronomical Twilight 6:33 AM CDT 8:03 PM CDT
Moon 9:22 PM CDT (11/2) 11:24 AM CDT (11/2)
Length of Visible Light 11h 24m
Length of Day
10h 28m
Waning Gibbous, 87% of the Moon is Illuminated
Nov 2
Waning Gibbous
Nov 6
Last Quarter
Nov 13
New
Nov 20
First Quarter
Nov 28
Full

Hourly Weather History & Observations

Time (CDT) Temp. Windchill Dew Point Humidity Pressure Visibility Wind Dir Wind Speed Gust Speed Precip Events Conditions
12:53 AM 55.9 °F - 37.9 °F 51% 29.86 in 10.0 mi SSE 10.4 mph - N/A   Clear
1:53 AM 53.1 °F - 37.9 °F 57% 29.85 in 10.0 mi SSE 11.5 mph - N/A   Clear
2:53 AM 50.0 °F - 37.9 °F 63% 29.84 in 10.0 mi ESE 6.9 mph - N/A   Clear
3:53 AM 53.1 °F - 39.0 °F 59% 29.81 in 10.0 mi SE 12.7 mph - N/A   Clear
4:53 AM 51.1 °F - 39.0 °F 63% 29.79 in 10.0 mi SE 11.5 mph - N/A   Clear
5:53 AM 51.1 °F - 39.9 °F 66% 29.78 in 10.0 mi SSE 10.4 mph - N/A   Clear
6:53 AM 51.1 °F - 41.0 °F 68% 29.80 in 10.0 mi SE 9.2 mph - N/A   Clear
7:53 AM 46.9 °F - 39.9 °F 77% 29.79 in 10.0 mi East 6.9 mph - N/A   Clear
8:53 AM 42.1 °F 39.2 °F 37.9 °F 85% 29.81 in 10.0 mi ESE 4.6 mph - N/A   Clear
9:53 AM 53.1 °F - 42.1 °F 66% 29.81 in 10.0 mi Calm Calm - N/A   Clear
10:53 AM 59.0 °F - 42.1 °F 53% 29.80 in 10.0 mi Calm Calm - N/A   Clear
11:53 AM 57.9 °F - 42.1 °F 56% 29.82 in 10.0 mi NNW 6.9 mph - N/A   Clear
12:53 PM 63.0 °F - 42.1 °F 46% 29.81 in 10.0 mi North 12.7 mph 19.6 mph N/A   Clear
1:53 PM 63.0 °F - 43.0 °F 48% 29.82 in 10.0 mi North 13.8 mph - N/A   Clear
2:53 PM 64.9 °F - 43.0 °F 45% 29.83 in 10.0 mi North 16.1 mph 21.9 mph N/A   Clear
3:53 PM 62.1 °F - 42.1 °F 48% 29.85 in 10.0 mi North 17.3 mph 25.3 mph N/A   Clear
4:53 PM 63.0 °F - 42.1 °F 46% 29.89 in 10.0 mi North 18.4 mph 25.3 mph N/A   Clear
5:53 PM 57.9 °F - 41.0 °F 53% 29.92 in 10.0 mi North 17.3 mph - N/A   Clear
6:53 PM 52.0 °F - 37.9 °F 59% 29.96 in 10.0 mi North 19.6 mph 25.3 mph N/A   Clear
7:53 PM 50.0 °F - 37.9 °F 63% 30.01 in 10.0 mi North 16.1 mph - N/A   Clear
8:53 PM 46.9 °F - 37.9 °F 71% 30.04 in 8.0 mi North 18.4 mph - N/A   Clear
9:53 PM 46.0 °F 39.6 °F 37.9 °F 73% 30.06 in 8.0 mi North 15.0 mph 23.0 mph N/A   Clear
10:53 PM 45.0 °F 38.2 °F 37.9 °F 76% 30.08 in 8.0 mi North 15.0 mph - N/A   Clear
11:53 PM 44.1 °F 37.4 °F 37.0 °F 76% 30.09 in 8.0 mi North 13.8 mph - N/A   Clear